Погода в Тирасполе

Молдова     46°50′09″N   29°36′23″E
темп.,
°C
ветер,
м/с
пор.,
м/с
влажн.,
%
обл.,
%
осадки,
мм/ч
давл.,
гПа
погр.,
м
20 января, чт
чт2023:00−2зюз23755 0.0 102335
02:00−2юз356032 0.0 102297
05:00−3ю236474 0.0 101952
08:00−3ю377371 0.0 1017146
11:00+1ююз610560 0.0 1015492
14:00+4юз57490 0.0 1012638
17:000зюз33630 0.0 101122
20:00−1зюз2263100 0.0 101011
21 января, пт
пт2123:00+1юз4126266 0.0 1010272
02:00+3з8175596 0.1 1010608
05:00−1зсз6137080 0.0 1013689
08:00−2зсз410560 0.0 1015414
11:00+1зсз712400 0.0 10161457
14:00+2зсз711310 0.0 10151854
17:00−1з33442 0.0 101534
20:00−2зсз224838 0.0 101510
22 января, сб
сб2223:00−3зюз23493 0.0 101548
02:00−3з4105225 0.0 1014377
05:00−3з5115485 0.0 1014544
08:00−3з6107281 0.0 1014681
11:00−1зсз7864100 0.0 10151074
14:000сз6952100 0.1 10141568
17:00−2сз48645 0.0 1015216
20:00−3з247078 0.0 101674
23 января, вс
вс2323:00−3зсз5108650 0.0 1017418
02:00−4сз498875 0.0 1018390
05:00−4ссз588781 0.1 1019504
08:00−5сз498168 0.1 1020430
11:00−3ссз5668100 0.0 1021793
14:00−2ссз5657100 0.1 10201261
17:00−3с356892 0.1 1021155
20:00−4с2575100 0.1 1023160
24 января, пн
пн2423:00−5с357842 0.0 1023278
02:00−6с47865 0.0 1024267
05:00−7с488892 0.0 1025372
08:00−7ссз588666 0.0 1027379
11:00−4с676697 0.0 1027700
14:00−2ссз675598 0.0 10271065
17:00−4ссз6963100 0.0 1028777
20:00−5ссз6970100 0.0 1029646